Notices

What's New in latest release on October 27, 2021:

- Updated email addresses on the CDO Contacts page.

- Updated station operator of Churchill Falls (Climate ID: 8501130).

- Radar site name change from Jimmy Lake to Cold Lake on October 27, 2021.

Hourly Data Report for July 02, 2021

SALLUIT
QUEBEC
Current Station Operator: ECCC - MSC

62°10'46.005" N
75°40'13.006" W
228.00 m
7117800
71641
MFX

Download Data

Hourly Data (July 2021)
Hourly Data Report for July 2, 2021
TIME
LST
Temp Definition
°C
Dew Point Definition
°C
Rel Hum Definition
%
Precip. Amount Definition
mm

Wind Dir Definition
10's deg

Wind Spd Definition
km/h
Visibility Definition
km
Stn Press Definition
kPa
Hmdx Definition


Wind Chill Definition


Weather Definition


00:00 5.7 3.2 84 0.3 16 24   98.65     LegendNANA
01:00 5.4 3.2 86 0.2 20 17   98.62     LegendNANA
02:00 5.7 3.0 83 0.0 26 7   98.61     LegendNANA
03:00 5.1 3.4 89 0.2 21 7   98.64     LegendNANA
04:00 6.1 3.7 85 0.3 17 12   98.61     LegendNANA
05:00 6.2 4.4 88 0.0 22 5   98.60     LegendNANA
06:00 6.2 4.9 91 0.0 30 5   98.57     LegendNANA
07:00 7.1 4.0 81 0.0 19 8   98.61     LegendNANA
08:00 7.7 4.6 80 0.0 21 7   98.58     LegendNANA
09:00 9.3 4.6 72 0.0 21 9   98.55     LegendNANA
10:00 9.6 5.1 73 0.0 24 8   98.54     LegendNANA
11:00 10.5 4.2 65 0.0 27 6   98.49     LegendNANA
12:00 11.9 3.9 58 0.0 24 2   98.47     LegendNANA
13:00 12.7 2.7 50 0.0 25 5   98.47     LegendNANA
14:00 11.6 6.7 72 0.0 2 17   98.47     LegendNANA
15:00 11.2 5.7 69 0.0 2 19   98.48     LegendNANA
16:00 10.6 4.8 68 0.0 4 15   98.52     LegendNANA
17:00 9.7 4.4 70 0.0 3 16   98.50     LegendNANA
18:00 8.1 4.5 78 0.0 4 18   98.50     LegendNANA
19:00 7.1 3.6 78 0.0 4 18   98.54     LegendNANA
20:00 6.9 3.0 76 0.0 6 3   98.56     LegendNANA
21:00 4.6 2.8 88 0.0 19 1   98.58     LegendNANA
22:00 4.4 1.9 84 0.0 4 11   98.61     LegendNANA
23:00 3.8 1.7 86 0.0 4 5   98.61     LegendNANA

Notes on Data Quality.

Legend

  • E = Estimated
  • M = Missing
  • NA = Not Available*
  • [empty] = Indicates an unobserved value
Date modified: